Regional Weather Roundup
Issued by NWS

Home | Current Version | Previous Version | Graphics & Text | Print | Product List | Glossary On
Versions: 1 2 3 4 5 6 7 8 9 10 11 12 13 14 15 16 17 18 19 20 21 22 23 24 25 26 27 28 29 30 31 32 33 34 35 36 37 38 39 40 41 42 43 44 45 46 47 48 49 50
447
ASUS43 KMPX 281510
RWRMN
WEATHER ROUNDUP FOR MINNESOTA
NATIONAL WEATHER SERVICE TWIN CITIES/CHANHASSEN MN
1000 AM CDT WED SEP 28 2016


NOTE: "FAIR" INDICATES FEW OR NO CLOUDS BELOW 12,000 FEET WITH NO
SIGNIFICANT WEATHER AND/OR OBSTRUCTIONS TO VISIBILITY. N/A MEANS
CURRENT SKY AND/OR WEATHER CONDITIONS ARE NOT AVAILABLE.

MNZ060>063-068>070-281600-
   Twin Cities Metro

CITY           SKY/WX    TMP DP  RH WIND       PRES   REMARKS
TWIN CITIES    PTSUNNY   56  48  74 N13G24    30.13R
ST PAUL        PTSUNNY   57  49  74 N13G20    30.13R
CRYSTAL        CLOUDY    55  47  74 N10       30.13R
BLAINE         PTSUNNY   57  52  82 N14       30.13R
LAKEVILLE      CLOUDY    55  48  76 N12G20    30.12R
EDEN PRAIRIE   CLOUDY    56  48  74 N9        30.12R
LAKEVILLE      CLOUDY    55  48  76 N12G20    30.12R
SOUTH ST PAUL  MOSUNNY   57  48  72 N12G17    30.12R
LAKE ELMO      CLOUDY    55  50  82 N12       30.12R
$$
MNZ001>005-007-008-013>017-022>024-027-028-281600-
   Northwest Minnesota

CITY           SKY/WX    TMP DP  RH WIND       PRES   REMARKS
BEMIDJI        CLOUDY    51  48  90 NE6       30.24R
HALLOCK        SUNNY     50  46  87 CALM      30.29R
ROSEAU         PTSUNNY   52  48  87 N3        30.28R
WARROAD        CLOUDY    50  46  87 NW7       30.29R
THIEF RVR FALL CLOUDY    51  47  86 NE6       30.28R
CROOKSTON      CLOUDY    52  48  87 NW7       30.29R
FOSSTON        CLOUDY    46  46 100 N7        30.28R FOG
DETROIT LAKES  CLOUDY    50  46  87 NW7       30.26R
MOORHEAD       CLOUDY    48  45  87 NE6       30.28R
PARK RAPIDS    CLOUDY    52  45  77 NE9       30.22R
MAHNOMEN       CLOUDY    48  46  91 N7        30.26R
$$
MNZ006-009>011-018-025>026-281600-
   North Central Minnesota

CITY           SKY/WX    TMP DP  RH WIND       PRES   REMARKS
BAUDETTE       CLOUDY    51  49  92 E5        30.27R
FLAG ISLAND    CLOUDY    48  46  93 W10       30.27R
INTL FALLS     CLOUDY    53  48  83 N6        30.25R
WASKISH        CLOUDY    50  48  93 NE6       30.26R
BIG FORK       CLOUDY    54  48  82 CALM      30.23R
GRAND RAPIDS   CLOUDY    52  48  86 N9        30.23R
COOK           CLOUDY    52  48  87 N5        30.22R
WALKER         CLOUDY    50  48  91 N6        30.23R
$$
MNZ012-019>021-037-281600-
   Northeast Minnesota

CITY           SKY/WX    TMP DP  RH WIND       PRES   REMARKS
DULUTH         CLOUDY    55  48  77 N10G18    30.17R
ELY            CLOUDY    52  46  82 N6        30.19R
HIBBING        CLOUDY    52  46  80 NE9       30.20R
EVELETH        CLOUDY    53  46  77 NE8G17    30.21R
DULUTH HARBOR  CLOUDY    55  52  88 N16       30.16R
TWO HARBORS    CLOUDY    57  50  77 NE9       30.14R
SILVER BAY     CLOUDY    55  48  76 N8        30.15R
GRAND MARAIS     N/A     58  49  72 N9        30.15R
G MARAIS ARPRT CLOUDY    50  45  81 N12       30.17R
$$
MNZ029>031-032-039>041-046>048-054>057-064-281600-
   West Central Minnesota

CITY           SKY/WX    TMP DP  RH WIND       PRES   REMARKS
FERGUS FALLS   CLOUDY    50  48  93 NE5       30.27R
MORRIS         CLOUDY    52  46  82 N8        30.23R
ALEXANDRIA     MOSUNNY   53  48  83 N12       30.22R
ELBOW LAKE     CLOUDY    50  46  86 NW8       30.24R
WADENA         MOSUNNY   52  46  82 N6        30.22R
GLENWOOD       MOSUNNY   54  48  82 N9        30.21R
APPLETON       CLOUDY    50  45  81 NE8       30.24R
BENSON         PTSUNNY   54  45  71 NE5       30.22R
ORTONVILLE     CLOUDY    48  43  81 CALM      30.24R
MADISON        CLOUDY    50  46  87 N6        30.24R
WILLMAR        FAIR      55  48  76 N9        30.21R
$$
MNZ033>034-036-042>043-049>051-058-059-281600-
   Central Minnesota

CITY           SKY/WX    TMP DP  RH WIND       PRES   REMARKS
ST CLOUD       CLOUDY    53  49  86 NW10      30.17R
SAUK CENTRE    FAIR      52  47  83 N10       30.21R
PAYNESVILLE    MOSUNNY   55  47  74 N9        30.20R
AITKIN         CLOUDY    55  46  71 N8        30.18R
PINE RIVER     MOSUNNY   54  48  82 N8        30.24R
BRAINERD       CLOUDY    52  48  86 N9        30.21R
STAPLES        CLOUDY    50  46  87 N8        30.22R
LONG PRAIRIE   PTSUNNY   52  46  82 NW8       30.21R
LITTLE FALLS   MOSUNNY   52  46  82 N6        30.20R
LITCHFIELD     CLOUDY    55  48  76 N10G17    30.19R
BUFFALO        CLOUDY    54  48  80 NW10      30.17R
MAPLE LAKE     CLOUDY    54  50  87 N9        30.18R
HUTCHINSON     CLOUDY    54  49  83 NW15      30.18R
$$
MNZ037-044-045-052-053-281600-
   East Central Minnesota

CITY           SKY/WX    TMP DP  RH WIND       PRES   REMARKS
PRINCETON      PTSUNNY   57  52  82 N10       30.16R
MORA           CLOUDY    54  46  76 N6        30.18R
CAMBRIDGE      CLOUDY    57  46  67 NW8       30.13R
MOOSE LAKE     PTSUNNY   55  46  71 N8        30.15R
HINCKLEY       CLOUDY    54  50  87 N7        30.15R
CLOQUET        MOSUNNY   55  46  71 N14G20    30.16R
MCGREGOR       CLOUDY    54  48  82 N10       30.19R
$$
MNZ071>073-080-081-089-090-097-098-281600-
   Southwest Minnesota

CITY           SKY/WX    TMP DP  RH WIND       PRES   REMARKS
MONTEVIDEO     CLOUDY    52  46  82 NE8       30.24R
GRANITE FALLS  CLOUDY    52  47  85 NW7       30.23R
CANBY          CLOUDY    48  45  90 N6        30.25R
MARSHALL       CLOUDY    48  44  86 N12       30.22R
REDWOOD FALLS  CLOUDY    51  48  89 NW8       30.19R
OLIVIA         PTSUNNY   54  48  82 NW10      30.18R
PIPESTONE      CLOUDY    46  43  87 NE12      30.21R
WINDOM         CLOUDY    50  45  81 N15       30.18R
WORTHINGTON    CLOUDY    46  44  93 N14       30.20R
JACKSON        CLOUDY    50  43  76 N8G16     30.17R
TRACY          CLOUDY    48  47  95 N12       30.22R FOG
SLAYTON        CLOUDY    45  41  87 N14G20    30.21R
$$
MNZ065>067-074>077-082>085-091>093-281600-
   South Central Minnesota

CITY           SKY/WX    TMP DP  RH WIND       PRES   REMARKS
MANKATO        CLOUDY    52  47  83 N15       30.15R
NEW ULM        CLOUDY    54  46  76 N9        30.16R
ST JAMES       CLOUDY    54  46  76 NW13      30.18R
FAIRMONT       CLOUDY    52  47  83 N15       30.16R
GLENCOE        CLOUDY    54  51  90 N12G17    30.16R
FARIBAULT      CLOUDY    55  48  76 NW10G16   30.11R
OWATONNA       CLOUDY    55  46  71 N9        30.10R
WASECA         CLOUDY    52  46  82 NW13      30.13R
ALBERT LEA     CLOUDY    54  48  82 N12       30.10R
$$
MNZ078>079-086>088-094>096-281600-
   Southeast Minnesota

CITY           SKY/WX    TMP DP  RH WIND       PRES   REMARKS
ROCHESTER      CLOUDY    52  51  97 N12       30.07R
RED WING       CLOUDY    57  48  72 N10G17    30.07R
STANTON        CLOUDY    56  49  78 N12G20    30.10R
DODGE CENTER   CLOUDY    54  48  82 N17       30.08R
WINONA         CLOUDY    55  52  88 NW9       30.04R
AUSTIN         CLOUDY    54  48  82 N15G22    30.07R
PRESTON        CLOUDY    51  48  90 N14       30.05R FOG
$$
ABBREVIATIONS USED IN REMARKS
   TC - TEMPERATURES IN CELSIUS
  WCI - WIND CHILL INDEX
   HX - HEAT INDEX
  VSB - VISIBILITY
$$




USA.gov is the U.S. government's official web portal to all federal, state and local government web resources and services.